Location: Sobotiste
(48.7170°N, 17.4000°E)
Time: 08:27:30
(UTC+01:00)

NOAA 18 - Visible Passes

Search period start: 11 March 2026 00:00
Search period end: 21 March 2026 00:00
Orbit: 836 x 858 km, 98.8° (Epoch: 10 March)

Date Brightness Start Highest point End Pass type
(mag) Time Alt. Az. Time Alt. Az. Time Alt. Az.
11 Mar 6.9 20:38:38 20° NNE 20:38:38 20° NNE 20:41:10 10° N visible
11 Mar 7.2 22:20:32 24° NNW 22:20:32 24° NNW 22:22:36 10° NNW visible
12 Mar 7.0 20:25:21 18° NE 20:25:21 18° NE 20:27:50 10° NNE visible
12 Mar 7.0 22:07:16 27° NNW 22:07:16 27° NNW 22:09:37 10° NNW visible
13 Mar 7.1 20:12:05 15° NE 20:12:05 15° NE 20:14:24 10° NNE visible
13 Mar 6.8 21:53:59 29° N 21:53:59 29° N 21:56:35 10° NNW visible
13 Mar 8.0 23:35:54 10° NW 23:35:54 10° NW 23:35:54 10° NW visible
14 Mar 7.2 19:58:48 12° NE 19:58:48 12° NE 20:00:45 10° NNE visible
14 Mar 6.6 21:40:43 31° N 21:40:43 31° N 21:43:32 10° N visible
14 Mar 7.8 23:22:37 13° NW 23:22:37 13° NW 23:23:22 10° NW visible
15 Mar 6.5 21:27:26 31° NNE 21:27:26 31° NNE 21:30:26 10° N visible
15 Mar 7.6 23:09:21 16° NW 23:09:21 16° NW 23:10:41 10° NW visible
16 Mar 6.5 21:14:09 30° NNE 21:14:09 30° NNE 21:17:19 10° N visible
16 Mar 7.4 22:56:04 20° NW 22:56:04 20° NW 22:57:54 10° NNW visible
17 Mar 6.5 21:00:52 28° NNE 21:00:52 28° NNE 21:04:09 10° N visible
17 Mar 7.2 22:42:47 24° NW 22:42:47 24° NW 22:45:03 10° NNW visible
18 Mar 6.6 20:47:36 25° NE 20:47:36 25° NE 20:50:56 10° N visible
18 Mar 6.9 22:29:30 28° NW 22:29:30 28° NW 22:32:08 10° NNW visible
19 Mar 6.7 20:34:19 21° NE 20:34:19 21° NE 20:37:40 10° N visible
19 Mar 6.7 22:16:14 33° NNW 22:16:14 33° NNW 22:19:11 10° NNW visible
20 Mar 6.9 20:21:02 18° NE 20:21:02 18° NE 20:24:19 10° NNE visible
20 Mar 6.4 22:02:56 38° NNW 22:02:56 38° NNW 22:06:12 10° NNW visible
20 Mar 7.9 23:44:51 10° NW 23:44:51 10° NW 23:44:59 10° NW visible
